Flag for Germany Weather past 2 weeks in Dannenberg, Lower Saxony, Germany

41 °F

Passing clouds.

Feels Like: 35 °F
Forecast: 38 / 50 °F
Wind: 9 mph from West

Location: Mecklenburg-Vorpommern - Parchim

Current Time: Nov 28, 2015 at 3:03:10 PM

Latest Report: Nov 28, 2015 at 2:20 PM

Visibility: N/A

Pressure: 29.71 "Hg

Humidity: 93%

Dew point: 39 °F

Location of DannenbergLocation

Historic Weather in Dannenberg — Graph


Dannenberg temperature yesterday

Maximum temperature yesterday: 41 °F (at 2:20 PM)
Minimum temperature yesterday: 28 °F (at 5:50 AM)
Average temperature yesterday: 36 °F

Past Weeks' High & Low Weather Summary

High57 °F (Nov 13, 1:20 PM)100% (Nov 15, 7:50 AM)30.15 "Hg (Nov 15, 7:50 AM)
Low28 °F (Nov 22, 5:50 PM)52% (Nov 23, 1:50 PM)29.30 "Hg (Nov 21, 5:20 AM)
Average43 °F87%29.74 "Hg
* Reported Nov 13 1:20 PM — Nov 28 1:50 PM, Dannenberg, Weather by CustomWeather, © 2015

Note: Actual official high and low records may vary slightly from our data, if they occured in-between our weather recording intervals... More about our weather records


Dannenberg weather history for previous 24 hours

Time TempWeatherWind HumidityBarometerVisibility
1:50 PM
Sat, Nov 28
39 °FBroken clouds.10 mph100%29.68 "HgN/A
1:20 PM37 °FPartly sunny.10 mph100%29.68 "Hg6 mi
12:50 PM37 °FDrizzle. Mostly cloudy.12 mph93%29.68 "Hg4 mi
12:20 PM36 °FLight rain. Mostly cloudy.12 mph93%29.65 "Hg4 mi
11:50 AM34 °FLight rain. Mostly cloudy.14 mph100%29.65 "Hg4 mi
11:20 AM34 °FLight rain. Low clouds.12 mph93%29.62 "Hg5 mi
10:50 AM34 °FLight snow. Mostly cloudy.14 mph93%29.62 "Hg2 mi
10:20 AM34 °FLight snow. Mostly cloudy.12 mph93%29.62 "Hg2 mi
9:50 AM34 °FLight rain. Low clouds.14 mph93%29.62 "Hg3 mi
9:20 AM34 °FLight rain. Fog.10 mph93%29.59 "Hg3 mi
8:50 AM32 °FDrizzle. Low clouds.10 mph100%29.62 "Hg3 mi
7:20 AM32 °FDrizzle. Mostly cloudy.10 mph87%29.62 "HgN/A
6:50 AM32 °FLight rain. Overcast.12 mph87%29.62 "HgN/A
6:20 AM32 °FClear.14 mph87%29.62 "Hg10 mi
5:50 AM32 °FClear.12 mph87%29.62 "Hg10 mi
5:50 PM
Fri, Nov 27
37 °FClear.10 mph93%29.92 "Hg10 mi
5:20 PM37 °FClear.10 mph93%29.92 "Hg10 mi
4:50 PM37 °FClear.8 mph93%29.92 "Hg6 mi
4:20 PM37 °FClear.8 mph100%29.95 "Hg4 mi
3:50 PM37 °FFog.8 mph100%29.95 "Hg3 mi
3:20 PM39 °FFog.9 mph93%29.95 "Hg3 mi
Weather by CustomWeather, © 2015

See weather overviewHow to use our weather pages